Weather History for Lancaster, PA

Change the Weather History Date:

Saturday, March 2, 2013

  Actual Average Record
Temperature  
Mean Temperature 34 °F -  
Max Temperature 37 °F 48 °F 69 °F (2004)
Min Temperature 30 °F 28 °F 10 °F (1980)
Degree Days  
Heating Degree Days 32    
Moisture  
Dew Point 19 °F    
Average Humidity 57    
Maximum Humidity 75    
Minimum Humidity 47    
Precipitation  
Precipitation 0.00 in - - ()
Sea Level Pressure  
Sea Level Pressure 29.82 in    
Wind  
Wind Speed 10 mph (NW)    
Max Wind Speed 16 mph    
Max Gust Speed 21 mph    
Visibility 10 miles    
Events Snow    
Averages and records for this station are not official NWS values.
T = Trace of Precipitation, MM = Missing Value Source: NWS Daily Summary

Daily Weather History Graph

Daily Weather History Graph

Search for Another Location

Airport:

Trip Planner

Search our weather history database for the weather conditions in past years. The results will help you decide how hot, cold, wet, or windy it might be!

Date:

Astronomy

Mar. 02, 2013 Rise Set
Actual Time 6:36 AM EST 5:58 PM EST
Civil Twilight 6:09 AM EST 6:25 PM EST
Nautical Twilight 5:38 AM EST 6:56 PM EST
Astronomical Twilight 5:06 AM EST 7:28 PM EST
Moon 11:35 PM EST (3/2) 9:03 AM EST (3/2)
Length of Visible Light 12h 15m
Length of Day
11h 21m
Waning Gibbous, 74% of the Moon is Illuminated
Mar 2
Waning Gibbous
Mar 4
Last Quarter
Mar 11
New
Mar 19
First Quarter
Mar 27
Full

Hourly Weather History & Observations

Time (EST) Temp. Windchill Dew Point Humidity Pressure Visibility Wind Dir Wind Speed Gust Speed Precip Events Conditions
12:53 AM 30.9 °F 23.5 °F 21.0 °F 67% 29.84 in 10.0 mi NW 8.1 mph - N/A   Scattered Clouds
1:53 AM 32.0 °F 26.4 °F 21.0 °F 64% 29.84 in 10.0 mi NNW 5.8 mph - N/A   Overcast
2:53 AM 33.1 °F 24.4 °F 19.9 °F 59% 29.85 in 10.0 mi NNW 11.5 mph - N/A   Overcast
3:53 AM 32.0 °F 23.0 °F 19.0 °F 59% 29.85 in 10.0 mi NNW 11.5 mph - N/A   Overcast
4:53 AM 32.0 °F 23.6 °F 19.0 °F 59% 29.85 in 10.0 mi NW 10.4 mph - N/A   Overcast
5:53 AM 30.9 °F 25.2 °F 19.0 °F 61% 29.86 in 10.0 mi NNW 5.8 mph - N/A   Overcast
6:53 AM 30.9 °F 22.8 °F 18.0 °F 59% 29.85 in 10.0 mi NW 9.2 mph - N/A   Overcast
7:53 AM 32.0 °F 24.2 °F 18.0 °F 56% 29.86 in 10.0 mi NW 9.2 mph - N/A   Overcast
8:53 AM 32.0 °F 22.1 °F 18.0 °F 56% 29.85 in 10.0 mi NW 13.8 mph - N/A   Overcast
9:53 AM 34.0 °F 23.8 °F 19.0 °F 54% 29.84 in 10.0 mi NNW 16.1 mph 20.7 mph N/A   Overcast
10:53 AM 35.1 °F 27.4 °F 18.0 °F 50% 29.84 in 10.0 mi North 10.4 mph 19.6 mph N/A   Overcast
11:53 AM 36.0 °F 27.5 °F 19.0 °F 50% 29.83 in 10.0 mi NW 12.7 mph - N/A   Overcast
12:53 PM 36.0 °F 28.0 °F 18.0 °F 48% 29.80 in 10.0 mi NW 11.5 mph - N/A   Overcast
1:53 PM 37.0 °F 28.9 °F 19.0 °F 48% 29.78 in 10.0 mi WNW 12.7 mph 17.3 mph N/A   Overcast
2:53 PM 37.9 °F 32.1 °F 19.0 °F 47% 29.78 in 10.0 mi NNW 8.1 mph - N/A   Overcast
3:53 PM 37.0 °F 29.3 °F 19.0 °F 48% 29.78 in 10.0 mi NW 11.5 mph - N/A   Overcast
4:53 PM 36.0 °F 28.0 °F 18.0 °F 48% 29.78 in 10.0 mi NW 11.5 mph - N/A   Overcast
5:53 PM 35.1 °F 26.4 °F 18.0 °F 50% 29.79 in 10.0 mi NW 12.7 mph - N/A   Overcast
6:53 PM 35.1 °F 28.6 °F 18.0 °F 50% 29.80 in 10.0 mi NNW 8.1 mph - N/A   Overcast
8:53 PM 33.1 °F 25.5 °F 19.0 °F 56% 29.82 in 10.0 mi NW 9.2 mph - N/A   Overcast
9:53 PM 33.1 °F 24.9 °F 21.0 °F 61% 29.82 in 10.0 mi NW 10.4 mph - N/A   Overcast
10:53 PM 32.0 °F 24.8 °F 21.0 °F 64% 29.81 in 10.0 mi NNW 8.1 mph - N/A   Overcast
11:32 PM 30.2 °F 21.9 °F 23.0 °F 75% 29.80 in 8.0 mi NW 9.2 mph - 0.00 in Snow Light Snow
11:53 PM 30.9 °F 24.3 °F 23.0 °F 72% 29.81 in 7.0 mi WNW 6.9 mph - 0.00 in Snow Light Snow